Location: Ostrava
(49.8330°N, 18.2830°E)
Time: 23:20:19
(UTC+02:00)

Envisat - Pass Details

Date: 19 January 2022
Orbit: 764 x 765 km, 98.2° (Epoch: 21 May)

Event Time Altitude Azimuth Distance (km) Brightness Sun altitude
Rises 04:35:54 0° 16° (NNE) 3,242 6.5 -28.5°
Reaches altitude 10° 04:38:14 10° 19° (NNE) 2,312 5.7 -28.1°
Maximum altitude 04:43:18 65° 102° (ESE) 841 3.3 -27.3°
Drops below altitude 10° 04:48:20 10° 184° (S) 2,295 5.4 -26.5°
Sets 04:50:39 0° 187° (S) 3,217 6.2 -26.1°
